Time,TemperatureF,DewpointF,PressureIn,WindDirection,WindDirectionDegrees,WindSpeedMPH,WindSpeedGustMPH,Humidity,HourlyPrecipIn,Conditions,Clouds,dailyrainin,SoftwareType,DateUTC
2013-03-30 00:00:00,59.9,52.3,30.06,NE,34,0.0,1.0,76,0.00,,,0.00,Wunderground v.1.13,2013-03-30 07:00:00,
2013-03-30 00:05:00,59.8,52.2,30.06,NE,34,0.0,0.0,76,0.00,,,0.00,Wunderground v.1.13,2013-03-30 07:05:00,
2013-03-30 00:15:00,59.7,52.5,30.06,NE,34,0.0,0.0,77,0.00,,,0.00,Wunderground v.1.13,2013-03-30 07:15:00,
2013-03-30 00:20:00,59.7,52.5,30.06,NE,34,0.0,0.0,77,0.00,,,0.00,Wunderground v.1.13,2013-03-30 07:20:00,
2013-03-30 00:30:00,59.5,52.3,30.06,NE,34,0.0,0.0,77,0.00,,,0.00,Wunderground v.1.13,2013-03-30 07:30:00,
2013-03-30 00:35:00,59.5,52.3,30.06,NE,34,0.0,0.0,77,0.00,,,0.00,Wunderground v.1.13,2013-03-30 07:35:00,
2013-03-30 00:45:00,59.5,53.0,30.06,NE,34,0.0,0.0,79,0.00,,,0.00,Wunderground v.1.13,2013-03-30 07:45:00,
2013-03-30 00:55:00,59.4,52.9,30.06,NE,37,0.0,0.0,79,0.00,,,0.00,Wunderground v.1.13,2013-03-30 07:55:00,
2013-03-30 01:05:00,59.1,52.6,30.07,NE,37,0.0,3.0,79,0.00,,,0.00,Wunderground v.1.13,2013-03-30 08:05:00,
2013-03-30 01:15:00,59.0,52.8,30.06,NE,37,0.0,3.0,80,0.00,,,0.00,Wunderground v.1.13,2013-03-30 08:15:00,
2013-03-30 01:25:00,59.0,53.2,30.07,NE,47,0.0,3.0,81,0.00,,,0.00,Wunderground v.1.13,2013-03-30 08:25:00,
2013-03-30 01:35:00,59.0,53.2,30.06,NE,47,0.0,3.0,81,0.00,,,0.00,Wunderground v.1.13,2013-03-30 08:35:00,
2013-03-30 01:45:00,59.0,53.2,30.06,NE,47,0.0,3.0,81,0.00,,,0.00,Wunderground v.1.13,2013-03-30 08:45:00,
2013-03-30 01:50:00,59.0,53.5,30.06,NE,47,0.0,3.0,82,0.00,,,0.00,Wunderground v.1.13,2013-03-30 08:50:00,
2013-03-30 02:00:00,58.7,53.2,30.06,NE,47,0.0,3.0,82,0.00,,,0.00,Wunderground v.1.13,2013-03-30 09:00:00,
2013-03-30 02:05:00,58.6,53.1,30.06,NE,47,0.0,2.0,82,0.00,,,0.00,Wunderground v.1.13,2013-03-30 09:05:00,
2013-03-30 02:15:00,58.5,53.0,30.06,NE,47,0.0,2.0,82,0.00,,,0.00,Wunderground v.1.13,2013-03-30 09:15:00,
2013-03-30 02:25:00,58.4,52.9,30.06,North,32767,-999.0,2.0,82,0.00,,,0.00,Wunderground v.1.13,2013-03-30 09:25:00,
2013-03-30 02:30:00,58.3,52.8,30.05,North,32767,-999.0,2.0,82,0.00,,,0.00,Wunderground v.1.13,2013-03-30 09:30:00,
2013-03-30 02:40:00,58.2,52.7,30.06,North,32767,-999.0,2.0,82,0.00,,,0.00,Wunderground v.1.13,2013-03-30 09:40:00,
2013-03-30 02:50:00,58.0,52.9,30.05,North,32767,-999.0,2.0,83,0.00,,,0.00,Wunderground v.1.13,2013-03-30 09:50:00,
2013-03-30 02:55:00,58.0,52.9,30.06,North,32767,-999.0,2.0,83,0.00,,,0.00,Wunderground v.1.13,2013-03-30 09:55:00,
2013-03-30 03:00:00,57.9,52.8,30.06,North,32767,-999.0,2.0,83,0.00,,,0.00,Wunderground v.1.13,2013-03-30 10:00:00,
2013-03-30 03:05:00,57.9,52.8,30.06,North,32767,-999.0,0.0,83,0.00,,,0.00,Wunderground v.1.13,2013-03-30 10:05:00,
2013-03-30 03:15:00,57.8,52.7,30.05,North,32767,-999.0,0.0,83,0.00,,,0.00,Wunderground v.1.13,2013-03-30 10:15:00,
2013-03-30 03:25:00,57.6,52.5,30.05,North,32767,-999.0,0.0,83,0.00,,,0.00,Wunderground v.1.13,2013-03-30 10:25:00,
2013-03-30 03:30:00,57.6,52.5,30.05,North,32767,-999.0,0.0,83,0.00,,,0.00,Wunderground v.1.13,2013-03-30 10:30:00,
2013-03-30 03:40:00,57.4,52.3,30.05,North,32767,-999.0,0.0,83,0.00,,,0.00,Wunderground v.1.13,2013-03-30 10:40:00,
2013-03-30 03:50:00,57.3,52.5,30.05,North,32767,-999.0,0.0,84,0.00,,,0.00,Wunderground v.1.13,2013-03-30 10:50:00,
2013-03-30 04:00:00,57.1,52.3,30.05,North,32767,-999.0,0.0,84,0.00,,,0.00,Wunderground v.1.13,2013-03-30 11:00:00,
2013-03-30 04:05:00,57.1,52.3,30.04,North,32767,-999.0,0.0,84,0.00,,,0.00,Wunderground v.1.13,2013-03-30 11:05:00,
2013-03-30 04:15:00,56.9,52.1,30.04,North,32767,-999.0,0.0,84,0.00,,,0.00,Wunderground v.1.13,2013-03-30 11:15:00,
2013-03-30 04:25:00,56.8,52.0,30.04,North,32767,-999.0,0.0,84,0.00,,,0.00,Wunderground v.1.13,2013-03-30 11:25:00,
2013-03-30 04:35:00,56.7,51.9,30.04,North,32767,-999.0,0.0,84,0.00,,,0.00,Wunderground v.1.13,2013-03-30 11:35:00,
2013-03-30 04:45:00,56.6,51.8,30.04,North,32767,-999.0,0.0,84,0.00,,,0.00,Wunderground v.1.13,2013-03-30 11:45:00,
2013-03-30 04:55:00,56.5,52.0,30.04,North,32767,-999.0,0.0,85,0.00,,,0.00,Wunderground v.1.13,2013-03-30 11:55:00,
2013-03-30 05:05:00,56.5,52.0,30.04,North,32767,-999.0,0.0,85,0.00,,,0.00,Wunderground v.1.13,2013-03-30 12:05:00,
2013-03-30 05:15:00,56.4,51.9,30.04,North,32767,-999.0,0.0,85,0.00,,,0.00,Wunderground v.1.13,2013-03-30 12:15:00,
2013-03-30 05:25:00,56.4,52.3,30.04,North,32767,-999.0,0.0,86,0.00,,,0.00,Wunderground v.1.13,2013-03-30 12:25:00,
2013-03-30 05:30:00,56.4,52.3,30.04,North,32767,-999.0,0.0,86,0.00,,,0.00,Wunderground v.1.13,2013-03-30 12:30:00,
2013-03-30 05:40:00,56.4,52.3,30.04,North,32767,-999.0,0.0,86,0.00,,,0.00,Wunderground v.1.13,2013-03-30 12:40:00,
2013-03-30 05:50:00,56.4,52.3,30.04,North,32767,-999.0,0.0,86,0.00,,,0.00,Wunderground v.1.13,2013-03-30 12:50:00,
2013-03-30 06:00:00,56.3,52.2,30.04,North,32767,-999.0,0.0,86,0.00,,,0.00,Wunderground v.1.13,2013-03-30 13:00:00,
2013-03-30 06:05:00,56.3,52.2,30.04,North,32767,-999.0,0.0,86,0.00,,,0.00,Wunderground v.1.13,2013-03-30 13:05:00,
2013-03-30 06:15:00,56.1,52.0,30.04,North,32767,-999.0,0.0,86,0.00,,,0.00,Wunderground v.1.13,2013-03-30 13:15:00,
2013-03-30 06:25:00,55.9,51.8,30.04,North,32767,-999.0,0.0,86,0.00,,,0.00,Wunderground v.1.13,2013-03-30 13:25:00,
2013-03-30 06:30:00,55.9,51.8,30.05,North,32767,-999.0,0.0,86,0.00,,,0.00,Wunderground v.1.13,2013-03-30 13:30:00,
2013-03-30 06:40:00,55.7,51.6,30.05,North,32767,-999.0,0.0,86,0.00,,,0.00,Wunderground v.1.13,2013-03-30 13:40:00,
2013-03-30 06:50:00,55.5,51.4,30.05,North,32767,-999.0,0.0,86,0.00,,,0.00,Wunderground v.1.13,2013-03-30 13:50:00,
2013-03-30 07:00:00,55.4,51.3,30.05,North,32767,-999.0,0.0,86,0.00,,,0.00,Wunderground v.1.13,2013-03-30 14:00:00,
2013-03-30 07:05:00,55.3,51.2,30.05,North,32767,-999.0,0.0,86,0.00,,,0.00,Wunderground v.1.13,2013-03-30 14:05:00,
2013-03-30 07:15:00,55.3,51.5,30.06,North,32767,-999.0,0.0,87,0.00,,,0.00,Wunderground v.1.13,2013-03-30 14:15:00,
2013-03-30 07:25:00,55.3,51.5,30.06,North,32767,-999.0,0.0,87,0.00,,,0.00,Wunderground v.1.13,2013-03-30 14:25:00,
2013-03-30 07:35:00,55.4,51.6,30.06,North,32767,-999.0,0.0,87,0.00,,,0.00,Wunderground v.1.13,2013-03-30 14:35:00,
2013-03-30 07:40:00,55.4,51.6,30.06,North,32767,-999.0,0.0,87,0.00,,,0.00,Wunderground v.1.13,2013-03-30 14:40:00,
2013-03-30 07:50:00,55.5,52.0,30.06,North,32767,-999.0,0.0,88,0.00,,,0.00,Wunderground v.1.13,2013-03-30 14:50:00,
2013-03-30 08:00:00,55.7,52.2,30.07,North,32767,-999.0,0.0,88,0.00,,,0.00,Wunderground v.1.13,2013-03-30 15:00:00,
2013-03-30 08:05:00,55.8,52.3,30.07,North,32767,-999.0,0.0,88,0.00,,,0.00,Wunderground v.1.13,2013-03-30 15:05:00,
2013-03-30 08:15:00,56.1,52.9,30.07,North,32767,-999.0,0.0,89,0.00,,,0.00,Wunderground v.1.13,2013-03-30 15:15:00,
2013-03-30 08:25:00,56.4,53.2,30.07,North,32767,-999.0,0.0,89,0.00,,,0.00,Wunderground v.1.13,2013-03-30 15:25:00,
2013-03-30 08:30:00,56.5,53.3,30.07,North,32767,-999.0,0.0,89,0.00,,,0.00,Wunderground v.1.13,2013-03-30 15:30:00,
2013-03-30 08:40:00,56.8,53.6,30.07,North,32767,-999.0,0.0,89,0.00,,,0.00,Wunderground v.1.13,2013-03-30 15:40:00,
2013-03-30 08:50:00,57.0,53.8,30.07,North,32767,-999.0,0.0,89,0.00,,,0.00,Wunderground v.1.13,2013-03-30 15:50:00,
2013-03-30 09:00:00,57.3,54.4,30.08,North,32767,-999.0,0.0,90,0.00,,,0.00,Wunderground v.1.13,2013-03-30 16:00:00,
2013-03-30 09:05:00,57.4,54.2,30.07,North,32767,-999.0,0.0,89,0.00,,,0.00,Wunderground v.1.13,2013-03-30 16:05:00,
2013-03-30 09:15:00,57.7,54.8,30.07,North,32767,-999.0,0.0,90,0.00,,,0.00,Wunderground v.1.13,2013-03-30 16:15:00,
2013-03-30 09:25:00,58.0,54.8,30.08,North,32767,-999.0,0.0,89,0.00,,,0.00,Wunderground v.1.13,2013-03-30 16:25:00,
2013-03-30 09:35:00,58.1,54.9,30.08,North,32767,-999.0,0.0,89,0.00,,,0.00,Wunderground v.1.13,2013-03-30 16:35:00,
2013-03-30 09:40:00,58.1,54.9,30.08,North,32767,-999.0,0.0,89,0.00,,,0.00,Wunderground v.1.13,2013-03-30 16:40:00,
2013-03-30 09:50:00,58.0,54.8,30.08,North,32767,-999.0,0.0,89,0.00,,,0.00,Wunderground v.1.13,2013-03-30 16:50:00,
2013-03-30 10:00:00,58.1,54.9,30.08,North,32767,-999.0,0.0,89,0.00,,,0.00,Wunderground v.1.13,2013-03-30 17:00:00,
2013-03-30 10:05:00,58.3,55.1,30.07,North,32767,-999.0,0.0,89,0.00,,,0.00,Wunderground v.1.13,2013-03-30 17:05:00,
2013-03-30 10:15:00,58.6,55.4,30.07,North,32767,-999.0,0.0,89,0.00,,,0.00,Wunderground v.1.13,2013-03-30 17:15:00,
2013-03-30 10:25:00,59.0,55.4,30.08,North,32767,-999.0,0.0,88,0.00,,,0.00,Wunderground v.1.13,2013-03-30 17:25:00,
2013-03-30 10:35:00,59.0,55.4,30.08,North,32767,-999.0,0.0,88,0.00,,,0.00,Wunderground v.1.13,2013-03-30 17:35:00,
2013-03-30 10:40:00,59.2,55.6,30.08,North,32767,-999.0,0.0,88,0.00,,,0.00,Wunderground v.1.13,2013-03-30 17:40:00,
2013-03-30 10:50:00,59.5,55.6,30.07,North,32767,-999.0,0.0,87,0.00,,,0.00,Wunderground v.1.13,2013-03-30 17:50:00,
2013-03-30 11:00:00,60.2,56.3,30.08,North,32767,-999.0,0.0,87,0.00,,,0.00,Wunderground v.1.13,2013-03-30 18:00:00,
2013-03-30 11:05:00,60.5,56.6,30.07,North,32767,-999.0,0.0,87,0.00,,,0.00,Wunderground v.1.13,2013-03-30 18:05:00,
2013-03-30 11:15:00,61.2,56.7,30.07,North,32767,-999.0,0.0,85,0.00,,,0.00,Wunderground v.1.13,2013-03-30 18:15:00,
2013-03-30 11:25:00,62.3,56.4,30.07,North,32767,-999.0,0.0,81,0.00,,,0.00,Wunderground v.1.13,2013-03-30 18:25:00,
2013-03-30 11:35:00,63.7,55.6,30.07,North,32767,-999.0,0.0,75,0.00,,,0.00,Wunderground v.1.13,2013-03-30 18:35:00,
2013-03-30 11:45:00,63.8,55.7,30.07,North,32767,-999.0,0.0,75,0.00,,,0.00,Wunderground v.1.13,2013-03-30 18:45:00,
2013-03-30 11:55:00,64.3,55.1,30.06,North,32767,-999.0,0.0,72,0.00,,,0.00,Wunderground v.1.13,2013-03-30 18:55:00,
2013-03-30 12:05:00,65.5,55.8,30.06,North,32767,-999.0,0.0,71,0.00,,,0.00,Wunderground v.1.13,2013-03-30 19:05:00,
2013-03-30 12:15:00,65.6,55.9,30.06,North,32767,-999.0,0.0,71,0.00,,,0.00,Wunderground v.1.13,2013-03-30 19:15:00,
2013-03-30 12:20:00,66.0,55.9,30.06,North,32767,-999.0,0.0,70,0.00,,,0.00,Wunderground v.1.13,2013-03-30 19:20:00,
2013-03-30 12:30:00,66.1,54.8,30.06,North,32767,-999.0,0.0,67,0.00,,,0.00,Wunderground v.1.13,2013-03-30 19:30:00,
2013-03-30 12:40:00,66.6,55.3,30.06,North,32767,-999.0,0.0,67,0.00,,,0.00,Wunderground v.1.13,2013-03-30 19:40:00,
2013-03-30 12:50:00,67.2,55.0,30.06,North,32767,-999.0,0.0,65,0.00,,,0.00,Wunderground v.1.13,2013-03-30 19:50:00,
2013-03-30 13:00:00,68.6,57.2,30.05,North,32767,-999.0,0.0,67,0.00,,,0.00,Wunderground v.1.13,2013-03-30 20:00:00,
2013-03-30 13:05:00,69.3,56.2,30.05,North,32767,-999.0,0.0,63,0.00,,,0.00,Wunderground v.1.13,2013-03-30 20:05:00,
2013-03-30 13:15:00,69.9,57.2,30.05,North,32767,-999.0,0.0,64,0.00,,,0.00,Wunderground v.1.13,2013-03-30 20:15:00,
2013-03-30 13:25:00,70.5,57.7,30.04,North,32767,-999.0,0.0,64,0.00,,,0.00,Wunderground v.1.13,2013-03-30 20:25:00,
2013-03-30 13:35:00,70.9,57.7,30.04,North,32767,-999.0,0.0,63,0.00,,,0.00,Wunderground v.1.13,2013-03-30 20:35:00,
2013-03-30 13:45:00,70.9,58.1,30.04,North,32767,-999.0,0.0,64,0.00,,,0.00,Wunderground v.1.13,2013-03-30 20:45:00,
2013-03-30 13:50:00,71.1,57.9,30.04,North,32767,-999.0,0.0,63,0.00,,,0.00,Wunderground v.1.13,2013-03-30 20:50:00,
2013-03-30 14:00:00,71.1,57.9,30.03,North,32767,-999.0,0.0,63,0.00,,,0.00,Wunderground v.1.13,2013-03-30 21:00:00,
2013-03-30 14:05:00,71.3,57.6,30.03,North,32767,-999.0,0.0,62,0.00,,,0.00,Wunderground v.1.13,2013-03-30 21:05:00,
2013-03-30 14:15:00,71.8,57.6,30.03,North,32767,-999.0,0.0,61,0.00,,,0.00,Wunderground v.1.13,2013-03-30 21:15:00,
2013-03-30 14:25:00,71.6,57.4,30.02,North,32767,-999.0,0.0,61,0.00,,,0.00,Wunderground v.1.13,2013-03-30 21:25:00,
2013-03-30 14:35:00,71.3,57.2,30.02,North,32767,-999.0,0.0,61,0.00,,,0.00,Wunderground v.1.13,2013-03-30 21:35:00,
2013-03-30 14:45:00,71.9,57.3,30.02,North,32767,-999.0,0.0,60,0.00,,,0.00,Wunderground v.1.13,2013-03-30 21:45:00,
2013-03-30 14:55:00,71.8,56.7,30.01,NNE,29,1.0,2.0,59,0.00,,,0.00,Wunderground v.1.13,2013-03-30 21:55:00,
2013-03-30 15:05:00,71.0,56.4,30.02,NNE,25,4.0,4.0,60,0.00,,,0.00,Wunderground v.1.13,2013-03-30 22:05:00,
2013-03-30 15:15:00,70.2,56.6,30.01,NE,42,2.0,2.0,62,0.00,,,0.00,Wunderground v.1.13,2013-03-30 22:15:00,
2013-03-30 15:25:00,71.7,57.1,30.00,NNE,23,4.0,4.0,60,0.00,,,0.00,Wunderground v.1.13,2013-03-30 22:25:00,
2013-03-30 15:35:00,72.5,57.4,30.00,NE,37,3.0,3.0,59,0.00,,,0.00,Wunderground v.1.13,2013-03-30 22:35:00,
2013-03-30 15:45:00,72.6,55.0,30.00,North,9,2.0,13.0,54,0.00,,,0.00,Wunderground v.1.13,2013-03-30 22:45:00,
2013-03-30 15:55:00,72.1,55.5,30.00,NNE,14,1.0,13.0,56,0.00,,,0.00,Wunderground v.1.13,2013-03-30 22:55:00,
2013-03-30 16:05:00,71.5,55.5,29.99,NNE,32,2.0,7.0,57,0.00,,,0.00,Wunderground v.1.13,2013-03-30 23:05:00,
2013-03-30 16:15:00,70.7,55.7,30.00,North,5,3.0,3.0,59,0.00,,,0.00,Wunderground v.1.13,2013-03-30 23:15:00,
2013-03-30 16:25:00,70.3,56.2,30.00,NNE,23,2.0,2.0,61,0.00,,,0.00,Wunderground v.1.13,2013-03-30 23:25:00,
2013-03-30 16:35:00,69.4,56.7,30.00,NE,38,1.0,7.0,64,0.00,,,0.00,Wunderground v.1.13,2013-03-30 23:35:00,
2013-03-30 16:45:00,68.7,56.5,29.99,North,11,3.0,7.0,65,0.00,,,0.00,Wunderground v.1.13,2013-03-30 23:45:00,
2013-03-30 16:55:00,68.5,56.3,29.99,North,355,2.0,2.0,65,0.00,,,0.00,Wunderground v.1.13,2013-03-30 23:55:00,
2013-03-30 17:05:00,68.3,56.5,29.99,NNE,21,2.0,2.0,66,0.00,,,0.00,Wunderground v.1.13,2013-03-31 00:05:00,
2013-03-30 17:15:00,68.1,56.3,29.98,North,5,1.0,5.0,66,0.00,,,0.00,Wunderground v.1.13,2013-03-31 00:15:00,
2013-03-30 17:25:00,68.0,55.8,30.00,North,5,0.0,5.0,65,0.00,,,0.00,Wunderground v.1.13,2013-03-31 00:25:00,
2013-03-30 17:35:00,67.9,56.1,29.99,North,5,0.0,5.0,66,0.00,,,0.00,Wunderground v.1.13,2013-03-31 00:35:00,
2013-03-30 17:45:00,67.7,57.2,29.98,NNE,21,2.0,5.0,69,0.00,,,0.00,Wunderground v.1.13,2013-03-31 00:45:00,
2013-03-30 17:55:00,67.1,57.0,29.98,WSW,254,2.0,2.0,70,0.00,,,0.00,Wunderground v.1.13,2013-03-31 00:55:00,
2013-03-30 18:05:00,66.2,56.1,29.98,SSW,192,1.0,6.0,70,0.00,,,0.00,Wunderground v.1.13,2013-03-31 01:05:00,
2013-03-30 18:15:00,65.7,55.6,29.98,SSW,192,0.0,6.0,70,0.00,,,0.00,Wunderground v.1.13,2013-03-31 01:15:00,
2013-03-30 18:25:00,65.4,55.7,29.98,SSW,192,0.0,6.0,71,0.00,,,0.01,Wunderground v.1.13,2013-03-31 01:25:00,
2013-03-30 18:35:00,65.1,56.2,29.99,SSW,192,0.0,6.0,73,0.00,,,0.01,Wunderground v.1.13,2013-03-31 01:35:00,
2013-03-30 18:45:00,64.8,56.3,29.98,SSW,192,0.0,6.0,74,0.00,,,0.01,Wunderground v.1.13,2013-03-31 01:45:00,
2013-03-30 18:55:00,64.5,56.0,29.99,SSE,151,1.0,6.0,74,0.00,,,0.01,Wunderground v.1.13,2013-03-31 01:55:00,
2013-03-30 19:05:00,64.0,55.5,30.00,SE,138,1.0,1.0,74,0.00,,,0.01,Wunderground v.1.13,2013-03-31 02:05:00,
2013-03-30 19:15:00,63.6,55.2,30.00,South,171,2.0,2.0,74,0.00,,,0.01,Wunderground v.1.13,2013-03-31 02:15:00,
2013-03-30 19:25:00,63.4,55.0,30.00,SW,225,1.0,1.0,74,0.00,,,0.01,Wunderground v.1.13,2013-03-31 02:25:00,
2013-03-30 19:35:00,63.2,54.4,30.00,SW,219,0.0,4.0,73,0.00,,,0.01,Wunderground v.1.13,2013-03-31 02:35:00,
2013-03-30 19:45:00,63.1,54.3,30.00,SW,219,0.0,4.0,73,0.00,,,0.01,Wunderground v.1.13,2013-03-31 02:45:00,
2013-03-30 19:55:00,63.0,54.2,30.01,SW,219,0.0,4.0,73,0.00,,,0.01,Wunderground v.1.13,2013-03-31 02:55:00,
2013-03-30 20:05:00,62.8,54.0,30.01,SW,219,0.0,0.0,73,0.00,,,0.01,Wunderground v.1.13,2013-03-31 03:05:00,
2013-03-30 20:15:00,62.6,54.2,30.01,SW,219,0.0,0.0,74,0.00,,,0.01,Wunderground v.1.13,2013-03-31 03:15:00,
2013-03-30 20:20:00,62.5,54.1,30.01,SW,219,0.0,0.0,74,0.00,,,0.01,Wunderground v.1.13,2013-03-31 03:20:00,
2013-03-30 20:30:00,62.3,54.3,30.01,SW,219,0.0,0.0,75,0.00,,,0.01,Wunderground v.1.13,2013-03-31 03:30:00,
2013-03-30 20:40:00,62.1,54.4,30.01,SW,219,0.0,0.0,76,0.00,,,0.01,Wunderground v.1.13,2013-03-31 03:40:00,
2013-03-30 20:50:00,62.0,54.3,30.01,SW,219,0.0,0.0,76,0.00,,,0.01,Wunderground v.1.13,2013-03-31 03:50:00,
2013-03-30 21:00:00,61.8,54.5,30.01,SW,219,0.0,0.0,77,0.00,,,0.01,Wunderground v.1.13,2013-03-31 04:00:00,
2013-03-30 21:05:00,61.7,54.4,30.01,SW,219,0.0,2.0,77,0.00,,,0.01,Wunderground v.1.13,2013-03-31 04:05:00,
2013-03-30 21:10:00,61.6,54.3,30.01,SW,219,0.0,2.0,77,0.00,,,0.01,Wunderground v.1.13,2013-03-31 04:10:00,
2013-03-30 21:20:00,61.5,54.2,30.01,SW,219,0.0,2.0,77,0.00,,,0.01,Wunderground v.1.13,2013-03-31 04:20:00,
2013-03-30 21:25:00,61.4,54.1,30.01,SW,219,0.0,2.0,77,0.00,,,0.01,Wunderground v.1.13,2013-03-31 04:25:00,
2013-03-30 21:35:00,61.3,54.4,30.02,SW,219,0.0,2.0,78,0.00,,,0.01,Wunderground v.1.13,2013-03-31 04:35:00,
2013-03-30 21:40:00,61.3,54.4,30.02,SW,219,0.0,2.0,78,0.00,,,0.01,Wunderground v.1.13,2013-03-31 04:40:00,
2013-03-30 21:50:00,61.2,54.6,30.02,SW,219,0.0,2.0,79,0.00,,,0.01,Wunderground v.1.13,2013-03-31 04:50:00,
2013-03-30 22:00:00,61.1,54.5,30.02,SW,219,0.0,2.0,79,0.00,,,0.01,Wunderground v.1.13,2013-03-31 05:00:00,
2013-03-30 22:05:00,61.1,54.5,30.02,SW,219,0.0,0.0,79,0.00,,,0.01,Wunderground v.1.13,2013-03-31 05:05:00,
2013-03-30 22:15:00,61.0,54.8,30.03,SW,219,1.0,1.0,80,0.00,,,0.01,Wunderground v.1.13,2013-03-31 05:15:00,
2013-03-30 22:20:00,61.0,54.8,30.03,SW,219,1.0,1.0,80,0.00,,,0.01,Wunderground v.1.13,2013-03-31 05:20:00,
2013-03-30 22:30:00,60.9,54.7,30.03,SW,219,0.0,0.0,80,0.00,,,0.01,Wunderground v.1.13,2013-03-31 05:30:00,
2013-03-30 22:40:00,60.8,54.9,30.03,SW,219,0.0,0.0,81,0.00,,,0.01,Wunderground v.1.13,2013-03-31 05:40:00,
2013-03-30 22:50:00,60.8,54.9,30.00,NW,323,1.0,1.0,81,0.00,,,0.01,Wunderground v.1.13,2013-03-31 05:50:00,
2013-03-30 23:00:00,60.7,54.8,30.02,NW,323,0.0,0.0,81,0.00,,,0.01,Wunderground v.1.13,2013-03-31 06:00:00,
2013-03-30 23:05:00,60.7,54.8,30.02,North,360,0.0,4.0,81,0.00,,,0.01,Wunderground v.1.13,2013-03-31 06:05:00,
2013-03-30 23:15:00,60.7,54.8,30.02,North,360,0.0,4.0,81,0.00,,,0.01,Wunderground v.1.13,2013-03-31 06:15:00,
2013-03-30 23:25:00,60.6,55.1,30.03,North,360,0.0,4.0,82,0.00,,,0.01,Wunderground v.1.13,2013-03-31 06:25:00,
2013-03-30 23:35:00,60.5,55.0,30.03,North,360,0.0,4.0,82,0.00,,,0.01,Wunderground v.1.13,2013-03-31 06:35:00,
2013-03-30 23:40:00,60.4,55.2,30.03,North,5,0.0,4.0,83,0.00,,,0.01,Wunderground v.1.13,2013-03-31 06:40:00,
2013-03-30 23:50:00,60.3,55.1,30.03,NE,54,0.0,4.0,83,0.00,,,0.02,Wunderground v.1.13,2013-03-31 06:50:00,